[[{"header":{"parameterUnit":"m.s-1","parameterCategory":1,"la1":30.2991,"la2":30.254,"lo1":-89.0895,"lo2":-89.0444,"dy":0.0017,"dx":0.0017,"nx":28,"ny":28,"refTime":"2023-08-15T03:00:00:Z","depth":0,"parameterNumber":2,"parameterNumberName":"U-component_of_WINDS"},"data":[0,0,0,0,0,0,0,0,0,0,0,0,0,0,0,0,0,0,0,0,0,0,0,0,0,0,0,0,0,0,0,0,0,0,0,0,0,0,0,0,0,0,0,0,0,0,0,0,0,0,0,0,0,0,0,0,0,0,1.4578,1.458,0,1.4754,1.4756,1.4758,1.4812,1.4811,1.481,1.481,1.499,1.4995,1.5,0,0,0,0,0,0,0,0,0,0,0,0,0,1.4285,1.4291,1.4578,1.458,1.4582,1.4754,1.4756,1.4759,1.4812,1.4811,1.481,1.4809,1.4988,1.4994,1.5001,0,0,0,0,0,0,0,0,0,0,0,0,0,1.4432,1.4292,1.4577,1.463,1.4636,1.4753,1.4756,1.4759,1.4813,1.4811,1.481,1.4809,1.4985,1.4994,1.5002,1.508,0,0,1.5028,1.5031,0,0,0,0,0,0,0,0,1.4424,1.4443,1.462,1.4626,1.4634,1.476,1.4719,1.4867,1.4813,1.4745,1.481,1.4808,1.4914,1.4928,1.4964,1.5088,1.5096,1.5028,1.5033,1.5037,1.5039,0,0,0,0,0,0,0,1.4414,1.4435,1.4648,1.4622,1.4631,1.4644,1.4663,1.4748,1.4835,1.4751,1.4756,1.4776,1.4918,1.4956,1.4969,1.5099,1.5028,1.5036,1.5041,1.5044,1.5294,1.5296,0,0,0,0,0,0,1.4395,1.4427,1.4642,1.4653,1.4523,1.465,1.4672,1.4721,1.4834,1.485,1.4777,1.4778,1.4942,1.4959,1.4975,1.5074,1.5037,1.5045,1.505,1.5293,1.5295,1.5297,0,0,0,0,0,0,1.4388,1.4413,1.4635,1.4541,1.457,1.4656,1.4711,1.4725,1.4763,1.4853,1.4869,1.48,1.4942,1.4964,1.5053,1.508,1.5049,1.5056,1.5291,1.5293,1.5296,1.527,0,0,0,0,0,0,1.438,1.4411,1.4442,1.4541,1.4575,1.471,1.4713,1.4729,1.4778,1.4781,1.4879,1.4894,1.4943,1.504,1.5062,1.5091,1.5063,1.5289,1.5292,1.5295,1.5269,1.5272,1.5274,0,0,0,0,0,1.4369,1.4428,1.4443,1.4469,1.4616,1.4712,1.4731,1.4785,1.478,1.4811,1.4869,1.4891,1.5074,1.5049,1.5074,1.5106,1.5287,1.5291,1.5295,1.5268,1.5271,1.5274,0,0,0,0,0,0,1.4329,1.4442,1.446,1.4553,1.4622,1.4721,1.4762,1.4787,1.4859,1.4859,1.4923,1.4945,1.5029,1.5077,1.5047,1.5187,1.5182,1.519,1.5153,1.5157,1.5159,1.5145,1.507,0,0,0,0,0,1.4331,1.44,1.4495,1.4567,1.4601,1.4675,1.4719,1.4755,1.4829,1.4859,1.4923,1.4994,1.5068,1.5115,1.5188,1.5276,1.5298,1.5311,1.5313,1.5314,1.5321,1.537,1.5377,1.5308,1.5308,1.5308,0,0,1.4335,1.4406,1.4445,1.4561,1.4619,1.4688,1.47,1.4773,1.4825,1.487,1.4959,1.5008,1.5092,1.5181,1.5223,1.5223,1.5345,1.5319,1.5319,1.5326,1.5375,1.5381,1.5387,1.5311,1.531,1.531,0,0,1.4379,1.444,1.4507,1.4564,1.4652,1.4701,1.4717,1.4811,1.4846,1.4936,1.4971,1.5033,1.5159,1.5217,1.5262,1.5327,1.535,1.5349,1.536,1.5408,1.5413,1.5418,1.5441,1.5448,1.5355,1.5355,1.5355,0,1.4374,1.4481,1.4538,1.4609,1.4658,1.4702,1.477,1.4823,1.493,1.4962,1.496,1.5118,1.5177,1.528,1.5296,1.5332,1.5351,1.5338,1.5408,1.5414,1.5419,1.5441,1.5449,1.5354,1.5354,1.5354,1.5354,0,1.4469,1.4542,1.4586,1.4688,1.4742,1.4811,1.4877,1.4925,1.4956,1.5005,1.5095,1.5168,1.5255,1.5282,1.5313,1.539,1.5386,1.5395,1.5391,1.5424,1.5446,1.5455,1.5353,1.5353,1.5354,1.5354,0,0,1.4493,1.4625,1.464,1.4686,1.4786,1.4843,1.4914,1.5,1.5039,1.5111,1.5171,1.5275,1.5284,1.5336,1.5374,1.5415,1.5461,1.5419,1.5422,1.5424,1.5548,1.554,1.5549,1.5476,1.5478,1.548,1.5541,0,1.455,1.4678,1.4731,1.4834,1.4902,1.4944,1.5005,1.5072,1.512,1.5183,1.5236,1.5308,1.5315,1.5346,1.5389,1.5446,1.5486,1.5442,1.5532,1.5535,1.551,1.5561,1.5553,1.5607,1.555,1.5551,1.5552,0,1.4633,1.4705,1.4815,1.4905,1.4936,1.499,1.5072,1.5133,1.5209,1.5241,1.5298,1.5333,1.5408,1.5398,1.5502,1.5471,1.5511,1.5544,1.5547,1.5558,1.5545,1.5572,1.5626,1.5634,1.5566,1.5565,1.5564,0,1.4638,1.4763,1.4845,1.4883,1.4991,1.5028,1.5074,1.515,1.5197,1.5269,1.5301,1.538,1.5423,1.5483,1.5539,1.5527,1.5637,1.5632,1.5664,1.5663,1.5685,1.5683,1.5746,1.5712,1.5711,1.5711,1.5711,0,1.4695,1.4761,1.4849,1.4899,1.4973,1.5033,1.5104,1.5154,1.522,1.528,1.5321,1.5377,1.5447,1.5511,1.5554,1.5633,1.5652,1.5679,1.569,1.5675,1.5672,1.5702,1.57,1.5714,1.5713,1.5713,1.5712,0,1.4714,1.4776,1.4868,1.4962,1.4987,1.5037,1.5118,1.5168,1.5216,1.5292,1.5313,1.5389,1.5466,1.5528,1.5629,1.5658,1.574,1.5753,1.5714,1.572,1.5748,1.5744,1.5833,1.5847,1.5803,1.5803,1.5804,0,1.4746,1.4798,1.4897,1.494,1.4986,1.5056,1.5105,1.5165,1.5214,1.5304,1.5343,1.5423,1.5491,1.5612,1.5677,1.5754,1.5768,1.5793,1.578,1.5763,1.5768,1.5764,1.5769,1.5795,1.5795,1.5795,1.5795,0,1.4797,1.4825,1.4894,1.4973,1.503,1.5096,1.5162,1.5195,1.5267,1.532,1.5399,1.5451,1.5554,1.5633,1.5717,1.5764,1.5792,1.5799,1.581,1.5796,1.5771,1.5784,1.5718,1.5797,1.5797,1.5796,1.5796,1.5796,1.4823,1.4871,1.4948,1.5023,1.5079,1.514,1.5191,1.5246,1.5313,1.5402,1.5433,1.5514,1.5589,1.5704,1.5752,1.5816,1.5818,1.5835,1.5839,1.5842,1.584,1.5761,1.5832,1.5832,1.5832,1.5832,1.5832,0,1.4875,1.4927,1.4995,1.5087,1.5145,1.5166,1.524,1.5288,1.5359,1.5426,1.5492,1.5582,1.5659,1.5729,1.5808,1.5846,1.5861,1.5865,1.5863,1.5873,1.5834,1.5816,1.5852,1.5852,1.5852,1.5852,1.5852,1.5852,1.4909,1.499,1.5026,1.5135,1.5186,1.5266,1.5307,1.5363,1.5416,1.5516,1.558,1.5625,1.5693,1.5778,1.5848,1.5867,1.5894,1.5895,1.5917,1.5879,1.5876,1.5873,1.5857,1.5901,1.5901,1.595,1.5951,1.5951]},{"header":{"parameterUnit":"m.s-1","parameterCategory":1,"la1":30.2991,"la2":30.254,"lo1":-89.0895,"lo2":-89.0444,"dy":0.0017,"dx":0.0017,"nx":28,"ny":28,"refTime":"2023-08-15T03:00:00:Z","depth":0,"parameterNumber":3,"parameterNumberName":"V-component_of_WINDS"},"data":[0,0,0,0,0,0,0,0,0,0,0,0,0,0,0,0,0,0,0,0,0,0,0,0,0,0,0,0,0,0,0,0,0,0,0,0,0,0,0,0,0,0,0,0,0,0,0,0,0,0,0,0,0,0,0,0,0,0,5.006,5.006,0,5.005,5.005,5.005,4.9974,4.9972,4.997,4.9969,4.9959,4.996,4.9961,0,0,0,0,0,0,0,0,0,0,0,0,0,5.0014,5.0015,5.006,5.006,5.006,5.005,5.005,5.005,4.9974,4.9972,4.997,4.9968,4.9958,4.996,4.9962,0,0,0,0,0,0,0,0,0,0,0,0,0,5.0022,5.0016,5.006,5.0021,5.0018,5.005,5.005,5.005,4.9975,4.9972,4.9969,4.9967,4.9957,4.996,4.9962,5.0031,0,0,4.9969,4.9969,0,0,0,0,0,0,0,0,5.0022,5.0024,5.0027,5.0024,5.002,5.001,5.003,5.0043,4.9975,4.9991,4.9968,4.9965,4.9978,4.9978,4.9983,5.0031,5.003,4.9969,4.997,4.9971,4.9972,0,0,0,0,0,0,0,5.0021,5.0024,5.0056,5.0027,5.0023,5.0004,5.0002,5.0032,5.0,4.9989,4.9984,4.9984,4.9976,4.9981,4.9982,5.003,4.9969,4.9971,4.9972,4.9973,5.0132,5.0135,0,0,0,0,0,0,5.0026,5.0024,5.0056,5.0056,5.0014,5.0007,5.0005,5.0016,5.0,4.9995,4.9986,4.998,4.9978,4.9979,4.9981,5.0059,4.9971,4.9973,4.9974,5.0129,5.0133,5.0136,0,0,0,0,0,0,5.0026,5.003,5.0057,5.0038,5.004,5.0011,5.0024,5.0018,5.0022,4.9997,4.9991,4.9997,4.9976,4.9978,5.0019,5.0058,4.9974,4.9976,5.0126,5.013,5.0135,5.0218,0,0,0,0,0,0,5.0025,5.003,5.0056,5.004,5.0042,5.0095,5.0027,5.0019,5.0026,5.0019,5.0006,5.0001,4.9974,5.0016,5.0021,5.0059,4.9978,5.0122,5.0128,5.0133,5.0211,5.0224,5.0235,0,0,0,0,0,5.0023,5.0081,5.0058,5.0062,5.0074,5.0097,5.0099,5.0066,5.003,5.0056,5.0039,5.0002,5.0053,5.0021,5.0026,5.0066,5.012,5.0126,5.0133,5.0206,5.0222,5.0235,0,0,0,0,0,0,5.0104,5.0078,5.0052,5.0106,5.0105,5.0085,5.0116,5.0084,5.0093,5.0085,5.0045,5.0043,5.0089,5.0082,5.0046,5.0131,5.008,5.0088,5.0134,5.0149,5.0161,5.0161,4.998,0,0,0,0,0,5.0128,5.0149,5.0125,5.0175,5.0176,5.0146,5.0155,5.013,5.0127,5.0126,5.0112,5.0111,5.0126,5.0137,5.015,5.021,5.0205,5.024,5.0252,5.0262,5.0269,5.0298,5.0313,5.0158,5.0158,5.0157,0,0,5.0178,5.0166,5.0182,5.0191,5.0187,5.0209,5.0146,5.0173,5.0189,5.013,5.0167,5.0157,5.0152,5.0202,5.0224,5.0198,5.0311,5.0271,5.0279,5.028,5.0306,5.0321,5.0334,5.0162,5.0161,5.0161,0,0,5.0279,5.0274,5.0313,5.031,5.0304,5.0284,5.0293,5.0278,5.0269,5.0305,5.0261,5.0279,5.0308,5.0305,5.0308,5.0408,5.0373,5.0413,5.0476,5.0505,5.0517,5.0528,5.0561,5.0574,5.0421,5.0421,5.0421,0,5.0342,5.0374,5.0338,5.0367,5.0371,5.0319,5.0358,5.0357,5.0356,5.036,5.0331,5.0363,5.0357,5.0404,5.0429,5.0433,5.0442,5.0414,5.0518,5.0529,5.0538,5.0569,5.0583,5.0426,5.0425,5.0424,5.0424,0,5.045,5.0473,5.0505,5.0504,5.0513,5.0547,5.0516,5.0529,5.0503,5.0486,5.0523,5.0513,5.0522,5.0532,5.0508,5.0576,5.056,5.0526,5.0473,5.0558,5.0587,5.0599,5.0432,5.0431,5.0429,5.0428,0,0,5.0602,5.0579,5.0592,5.059,5.0579,5.0595,5.0627,5.0635,5.0646,5.0647,5.0672,5.0696,5.0664,5.0667,5.0642,5.0668,5.0745,5.0629,5.0629,5.0649,5.0817,5.0842,5.0856,5.0722,5.0724,5.0726,5.0817,0,5.0697,5.0749,5.0717,5.0774,5.0793,5.0743,5.077,5.0766,5.0751,5.0765,5.0749,5.0766,5.0723,5.0724,5.0747,5.073,5.0777,5.0724,5.0743,5.0744,5.0744,5.0872,5.0898,5.0984,5.0828,5.083,5.0831,0,5.0816,5.082,5.0879,5.0862,5.0869,5.0894,5.0898,5.0913,5.0907,5.0894,5.0897,5.0865,5.0894,5.0844,5.0883,5.0847,5.0853,5.0846,5.0849,5.0848,5.0792,5.0872,5.1011,5.1023,5.0849,5.0848,5.0847,0,5.0918,5.0939,5.0976,5.0976,5.0958,5.0976,5.097,5.0961,5.0968,5.0972,5.0975,5.0983,5.0987,5.0994,5.0965,5.0931,5.1007,5.0955,5.0996,5.0997,5.1013,5.1012,5.1152,5.1021,5.102,5.102,5.102,0,5.1027,5.1064,5.1021,5.1044,5.1083,5.1046,5.1087,5.1075,5.1067,5.1086,5.1044,5.1063,5.1024,5.1039,5.1017,5.1051,5.1054,5.1044,5.1037,5.1046,5.1047,5.1049,5.1041,5.1024,5.1023,5.1022,5.1022,0,5.1147,5.112,5.1156,5.1136,5.1132,5.1162,5.1144,5.1164,5.1146,5.117,5.1174,5.1145,5.116,5.1132,5.1145,5.1129,5.1177,5.1162,5.1179,5.1173,5.1216,5.1211,5.136,5.1377,5.1237,5.1238,5.1239,0,5.1218,5.1244,5.1226,5.1236,5.1231,5.1247,5.1253,5.1218,5.1226,5.122,5.1241,5.1252,5.1259,5.1285,5.1266,5.1274,5.1258,5.131,5.1259,5.1267,5.1256,5.1254,5.1256,5.132,5.1321,5.1323,5.1324,0,5.1345,5.1329,5.1339,5.1344,5.1352,5.1355,5.1354,5.1365,5.1327,5.1338,5.1352,5.1358,5.1369,5.1381,5.1385,5.1378,5.1344,5.134,5.135,5.1359,5.1366,5.1361,5.1205,5.1337,5.1335,5.1334,5.1334,5.1333,5.144,5.1461,5.1451,5.1463,5.1459,5.1459,5.1476,5.1459,5.147,5.1476,5.1455,5.1474,5.1466,5.1468,5.1464,5.1478,5.1455,5.147,5.1473,5.1477,5.1482,5.1366,5.1479,5.1479,5.1478,5.1478,5.1478,0,5.1563,5.1554,5.1565,5.1565,5.1574,5.1542,5.154,5.1549,5.1566,5.1562,5.1569,5.1585,5.1596,5.1577,5.1585,5.1599,5.1584,5.1602,5.16,5.1598,5.1504,5.1494,5.1614,5.1614,5.1614,5.1614,5.1614,5.1614,5.1628,5.1661,5.1644,5.1674,5.1665,5.1682,5.1683,5.1683,5.1678,5.1698,5.1706,5.1693,5.1683,5.1689,5.1697,5.1691,5.1695,5.1718,5.1707,5.1619,5.1605,5.1593,5.1583,5.172,5.172,5.18,5.1801,5.1802]}]]